EDT,Max TemperatureF,Mean TemperatureF,Min TemperatureF,Max Dew PointF,MeanDew PointF,Min DewpointF,Max Humidity, Mean Humidity, Min Humidity, Max Sea Level PressureIn, Mean Sea Level PressureIn, Min Sea Level PressureIn, Max VisibilityMiles, Mean VisibilityMiles, Min VisibilityMiles, Max Wind SpeedMPH, Mean Wind SpeedMPH, Max Gust SpeedMPH,PrecipitationIn, CloudCover, Events, WindDirDegrees
2012-7-1,,,,,,,,,,,,,,,,,,,,,,
2012-7-2,,,,,,,,,,,,,,,,,,,,,,
2012-7-3,,,,,,,,,,,,,,,,,,,,,,
2012-7-4,,,,,,,,,,,,,,,,,,,,,,
2012-7-5,,,,,,,,,,,,,,,,,,,,,,
2012-7-6,73,73,73,66,66,66,78,78,78,30.23,30.20,30.18,10,8,7,8,6,,0.00,0,,291
2012-7-7,87,78,69,70,65,63,83,65,43,30.25,30.22,30.17,10,8,4,10,5,,0.00,0,,303
2012-7-8,87,79,71,70,65,63,78,65,43,30.20,30.16,30.09,10,10,10,16,9,21,0.00,1,Rain-Thunderstorm,286
2012-7-9,75,70,64,70,66,63,100,91,69,30.19,30.15,30.10,10,6,0,15,6,18,0.34,5,Fog-Rain-Thunderstorm,315
2012-7-10,75,68,62,64,61,52,100,78,44,30.25,30.20,30.16,10,9,1,14,3,20,0.28,4,Rain-Thunderstorm,94
2012-7-11,73,68,62,63,60,55,100,82,60,30.33,30.28,30.23,10,10,7,12,4,,0.00,3,Rain,109
2012-7-12,73,66,60,63,56,48,100,76,43,30.38,30.34,30.30,10,8,0,12,6,18,0.01,4,Fog-Rain,107
2012-7-13,64,60,57,61,57,52,100,88,72,30.40,30.36,30.33,10,9,0,10,5,16,0.09,8,Fog-Rain,105
2012-7-14,75,68,60,68,64,55,100,89,73,30.39,30.36,30.33,10,10,3,17,7,28,0.93,5,Rain-Thunderstorm,220
2012-7-15,80,72,64,70,66,63,100,86,54,30.38,30.33,30.27,10,9,0,14,9,23,0.00,3,Fog-Rain-Thunderstorm,254
2012-7-16,80,72,64,68,64,61,100,80,54,30.29,30.21,30.15,10,8,0,16,10,22,0.00,4,Fog-Thunderstorm,293
2012-7-17,82,74,66,68,64,61,100,73,51,30.21,30.17,30.13,10,9,5,10,7,,0.00,1,,266
2012-7-18,80,72,64,72,66,61,100,83,58,30.21,30.17,30.13,10,10,7,13,8,16,0.10,1,Rain-Thunderstorm,287
2012-7-19,80,72,64,68,63,57,94,81,58,30.22,30.17,30.10,10,10,7,15,7,25,0.49,3,Rain-Thunderstorm,274
2012-7-20,69,66,62,66,64,59,100,97,83,30.14,30.12,30.09,10,6,0,24,11,26,0.35,7,Fog-Rain-Thunderstorm,268
2012-7-21,73,68,62,70,65,63,100,98,83,30.29,30.18,30.11,10,2,0,10,7,,0.09,8,Fog-Rain-Thunderstorm,281
2012-7-22,80,71,62,70,64,57,100,89,47,30.36,30.32,30.27,10,5,0,12,5,16,0.02,5,Fog,230
2012-7-23,77,72,66,70,66,64,100,92,73,30.36,30.29,30.21,10,9,0,18,12,23,0.07,2,Rain-Thunderstorm,271
2012-7-24,73,68,62,70,67,63,100,99,88,30.21,30.12,30.03,10,3,0,21,17,32,0.34,7,Fog-Rain-Thunderstorm,276
2012-7-25,78,69,60,68,63,61,100,84,57,30.16,30.12,30.06,10,8,0,18,8,20,0.00,4,Fog,267
2012-7-26,82,76,69,72,67,63,100,79,51,30.11,30.06,30.00,10,8,0,20,15,28,0.00,3,Thunderstorm,270
2012-7-27,75,68,62,66,64,61,100,89,69,30.16,30.09,30.03,10,8,0,18,11,28,0.22,5,Fog-Rain-Thunderstorm,279
2012-7-28,75,68,62,66,62,55,100,83,50,30.20,30.15,30.11,10,7,0,17,12,23,0.01,3,Fog-Rain,280
2012-7-29,75,67,59,61,60,57,100,83,53,30.23,30.20,30.15,10,9,0,12,7,,0.00,3,Fog,336
2012-7-30,77,70,62,64,62,61,94,81,61,30.25,30.21,30.17,10,10,7,12,6,16,0.00,2,Rain-Thunderstorm,120
2012-7-31,73,66,60,64,62,57,100,86,69,30.20,30.14,30.07,10,8,0,12,6,25,0.45,4,Fog-Rain-Thunderstorm,162